| time (UTC) | temp F | wind direction | speed MPH | gust MPH | rain 1hr in | rain 24hr in | rain mn in | humidity % | barometer mb |
| 20260905055826 | 71 | 182 | 0.0 | 0.0 | 0.00 | 0.00 | 0.00 | 48 | 1014.8 |
| 20260905054813 | 71 | 182 | 0.0 | 1.0 | 0.00 | 0.00 | 0.00 | 48 | 1014.8 |
| 20260905054314 | 72 | 182 | 0.0 | 1.0 | 0.00 | 0.00 | 0.00 | 47 | 1014.8 |
| 20260905053813 | 72 | 182 | 0.0 | 1.0 | 0.00 | 0.00 | 0.00 | 47 | 1014.7 |
| 20260905053315 | 72 | 182 | 0.0 | 1.0 | 0.00 | 0.00 | 0.00 | 46 | 1014.7 |
| 20260905052811 | 73 | 182 | 0.0 | 1.0 | 0.00 | 0.00 | 0.00 | 46 | 1014.7 |
| 20260905052310 | 73 | 182 | 0.0 | 0.0 | 0.00 | 0.00 | 0.00 | 45 | 1014.8 |
| 20260905051808 | 73 | 182 | 0.0 | 0.0 | 0.00 | 0.00 | 0.00 | 44 | 1014.7 |
| 20260905051308 | 74 | 182 | 0.0 | 0.0 | 0.00 | 0.00 | 0.00 | 44 | 1014.8 |
| 20260905050808 | 74 | 182 | 0.0 | 1.0 | 0.00 | 0.00 | 0.00 | 43 | 1014.7 |
| 20260905050305 | 74 | 182 | 0.0 | 1.0 | 0.00 | 0.00 | 0.00 | 43 | 1014.7 |
| 20260905045802 | 74 | 182 | 0.0 | 2.0 | 0.00 | 0.00 | 0.00 | 42 | 1014.7 |
| 20260905045300 | 75 | 182 | 0.0 | 2.0 | 0.00 | 0.00 | 0.00 | 42 | 1014.7 |
| 20260905044800 | 75 | 182 | 0.0 | 1.0 | 0.00 | 0.00 | 0.00 | 42 | 1014.7 |
| 20260905044257 | 76 | 182 | 0.0 | 1.0 | 0.00 | 0.00 | 0.00 | 42 | 1014.7 |
| 20260905043758 | 76 | 182 | 0.0 | 1.0 | 0.00 | 0.00 | 0.00 | 41 | 1014.7 |
| 20260905043258 | 76 | 182 | 0.0 | 2.0 | 0.00 | 0.00 | 0.00 | 40 | 1014.7 |
| 20260905042754 | 77 | 182 | 0.0 | 2.0 | 0.00 | 0.00 | 0.00 | 39 | 1014.7 |
| 20260905042252 | 77 | 165 | 0.0 | 0.0 | 0.00 | 0.00 | 0.00 | 38 | 1014.7 |
| 20260905041752 | 77 | 165 | 0.0 | 0.0 | 0.00 | 0.00 | 0.00 | 38 | 1014.5 |
| 20260905040747 | 78 | 165 | 0.0 | 2.0 | 0.00 | 0.00 | 0.00 | 37 | 1014.3 |
| 20260905035736 | 78 | 200 | 0.0 | 3.0 | 0.00 | 0.00 | 0.00 | 38 | 1014.8 |
| 20260905035229 | 79 | 200 | 1.0 | 3.0 | 0.00 | 0.00 | 0.00 | 37 | 1014.8 |
| 20260905034723 | 79 | 221 | 1.0 | 3.0 | 0.00 | 0.00 | 0.00 | 36 | 1014.8 |
| 20260905034217 | 79 | 178 | 2.0 | 4.0 | 0.00 | 0.00 | 0.00 | 35 | 1014.7 |
| 20260905033712 | 80 | 202 | 1.0 | 4.0 | 0.00 | 0.00 | 0.00 | 34 | 1014.5 |
| 20260905033205 | 80 | 162 | 0.0 | 1.0 | 0.00 | 0.00 | 0.00 | 34 | 1014.7 |
| 20260905032700 | 80 | 162 | 0.0 | 1.0 | 0.00 | 0.00 | 0.00 | 33 | 1014.4 |
| 20260905032153 | 80 | 162 | 0.0 | 2.0 | 0.00 | 0.00 | 0.00 | 33 | 1014.4 |
| 20260905030142 | 81 | 113 | 0.0 | 3.0 | 0.00 | 0.00 | 0.00 | 32 | 1014.3 |
| 20260905025624 | 82 | 126 | 0.0 | 4.0 | 0.00 | 0.00 | 0.00 | 31 | 1014.3 |
| 20260905025118 | 82 | 126 | 1.0 | 6.0 | 0.00 | 0.00 | 0.00 | 31 | 1014.2 |
| 20260905024611 | 82 | 46 | 0.0 | 6.0 | 0.00 | 0.00 | 0.00 | 31 | 1014.2 |
| 20260905024105 | 83 | 121 | 0.0 | 1.0 | 0.00 | 0.00 | 0.00 | 31 | 1014.2 |
| 20260905023600 | 83 | 121 | 0.0 | 1.0 | 0.00 | 0.00 | 0.00 | 30 | 1014.1 |
| 20260905023053 | 83 | 121 | 0.0 | 3.0 | 0.00 | 0.00 | 0.00 | 30 | 1014.0 |
| 20260905022554 | 83 | 121 | 0.0 | 3.0 | 0.00 | 0.00 | 0.00 | 30 | 1013.8 |
| 20260905021048 | 83 | 143 | 1.0 | 7.0 | 0.00 | 0.00 | 0.00 | 29 | 1013.6 |
| 20260905020546 | 84 | 125 | 1.0 | 7.0 | 0.00 | 0.00 | 0.00 | 28 | 1013.5 |
| 20260905015546 | 84 | 60 | 2.0 | 10.0 | 0.00 | 0.00 | 0.00 | 28 | 1013.3 |
| 20260905015045 | 84 | 27 | 3.0 | 10.0 | 0.00 | 0.00 | 0.00 | 27 | 1013.3 |
| 20260905014546 | 84 | 40 | 2.0 | 8.0 | 0.00 | 0.00 | 0.00 | 27 | 1013.1 |
| 20260905014044 | 85 | 46 | 1.0 | 6.0 | 0.00 | 0.00 | 0.00 | 27 | 1013.1 |
| 20260905013544 | 85 | 54 | 1.0 | 3.0 | 0.00 | 0.00 | 0.00 | 27 | 1013.3 |
| 20260905013045 | 85 | 36 | 1.0 | 4.0 | 0.00 | 0.00 | 0.00 | 27 | 1013.3 |
| 20260905012542 | 85 | 30 | 1.0 | 7.0 | 0.00 | 0.00 | 0.00 | 27 | 1013.1 |
| 20260905012041 | 85 | 36 | 1.0 | 7.0 | 0.00 | 0.00 | 0.00 | 27 | 1013.1 |
| 20260905011542 | 86 | 47 | 1.0 | 3.0 | 0.00 | 0.00 | 0.00 | 27 | 1013.0 |
| 20260905011040 | 86 | 47 | 1.0 | 5.0 | 0.00 | 0.00 | 0.00 | 26 | 1013.0 |
| 20260905010538 | 86 | 0 | 1.0 | 8.0 | 0.00 | 0.00 | 0.00 | 26 | 1013.0 |
| 20260905010050 | 86 | 0 | 1.0 | 8.0 | 0.00 | 0.00 | 0.00 | 27 | 1013.1 |
| 20260905005539 | 86 | 84 | 2.0 | 8.0 | 0.00 | 0.00 | 0.00 | 26 | 1013.1 |
| 20260905005032 | 87 | 71 | 2.0 | 8.0 | 0.00 | 0.00 | 0.00 | 27 | 1013.3 |
| 20260905004526 | 87 | 61 | 1.0 | 5.0 | 0.00 | 0.00 | 0.00 | 26 | 1013.1 |
| 20260905004021 | 87 | 40 | 2.0 | 5.0 | 0.00 | 0.00 | 0.00 | 26 | 1013.1 |
| 20260905003514 | 87 | 44 | 1.0 | 4.0 | 0.00 | 0.00 | 0.00 | 26 | 1013.1 |
| 20260905003009 | 87 | 107 | 1.0 | 9.0 | 0.00 | 0.00 | 0.00 | 26 | 1013.3 |
| 20260905002503 | 88 | 121 | 2.0 | 9.0 | 0.00 | 0.00 | 0.00 | 26 | 1013.1 |
| 20260905001957 | 88 | 84 | 2.0 | 7.0 | 0.00 | 0.00 | 0.00 | 26 | 1013.1 |
| 20260905001451 | 88 | 74 | 1.0 | 4.0 | 0.00 | 0.00 | 0.00 | 25 | 1013.0 |
| 20260905000944 | 89 | 72 | 2.0 | 4.0 | 0.00 | 0.00 | 0.00 | 26 | 1012.9 |
| 20260905000440 | 89 | 81 | 2.0 | 4.0 | 0.00 | 0.00 | 0.00 | 25 | 1012.9 |
| 20260904235933 | 89 | 77 | 2.0 | 8.0 | 0.00 | 0.00 | 0.00 | 25 | 1012.9 |
| 20260904235426 | 89 | 73 | 3.0 | 10.0 | 0.00 | 0.00 | 0.00 | 25 | 1012.9 |
| 20260904234920 | 89 | 103 | 3.0 | 10.0 | 0.00 | 0.00 | 0.00 | 24 | 1013.0 |
| 20260904234415 | 90 | 126 | 2.0 | 9.0 | 0.00 | 0.00 | 0.00 | 24 | 1012.9 |
| 20260904233910 | 90 | 142 | 2.0 | 9.0 | 0.00 | 0.00 | 0.00 | 25 | 1012.8 |
| 20260904233404 | 90 | 119 | 2.0 | 9.0 | 0.00 | 0.00 | 0.00 | 24 | 1012.9 |
| 20260904232857 | 90 | 149 | 2.0 | 8.0 | 0.00 | 0.00 | 0.00 | 24 | 1012.8 |
| 20260904231339 | 90 | 48 | 1.0 | 6.0 | 0.00 | 0.00 | 0.00 | 24 | 1012.7 |
| 20260904230834 | 90 | 49 | 2.0 | 5.0 | 0.00 | 0.00 | 0.00 | 24 | 1012.7 |
| 20260904225822 | 90 | 306 | 3.0 | 20.0 | 0.00 | 0.00 | 0.00 | 24 | 1012.5 |
| 20260904224808 | 90 | 69 | 2.0 | 9.0 | 0.00 | 0.00 | 0.00 | 24 | 1012.8 |
| 20260904224303 | 91 | 67 | 1.0 | 5.0 | 0.00 | 0.00 | 0.00 | 22 | 1012.8 |
| 20260904223758 | 91 | 15 | 1.0 | 4.0 | 0.00 | 0.00 | 0.00 | 23 | 1012.7 |
| 20260904223251 | 91 | 227 | 1.0 | 4.0 | 0.00 | 0.00 | 0.00 | 21 | 1012.7 |
| 20260904222744 | 91 | 87 | 2.0 | 9.0 | 0.00 | 0.00 | 0.00 | 22 | 1012.8 |
| 20260904222239 | 91 | 82 | 2.0 | 9.0 | 0.00 | 0.00 | 0.00 | 21 | 1012.7 |
| 20260904221733 | 91 | 36 | 2.0 | 7.0 | 0.00 | 0.00 | 0.00 | 22 | 1012.8 |
| 20260904220721 | 92 | 48 | 2.0 | 7.0 | 0.00 | 0.00 | 0.00 | 20 | 1012.8 |
| 20260904220215 | 92 | 51 | 2.0 | 9.0 | 0.00 | 0.00 | 0.00 | 21 | 1012.9 |
| 20260904220000 | 92 | 55 | 2.0 | 9.0 | 0.00 | 0.00 | 0.00 | 21 | 1013.0 |
| 20260904215840 | 92 | 53 | 1.0 | 8.0 | 0.00 | 0.00 | 0.00 | 21 | 1013.0 |
| 20260904215217 | 92 | 90 | 1.0 | 9.0 | 0.00 | 0.00 | 0.00 | 20 | 1013.0 |
| 20260904214429 | 92 | 24 | 2.0 | 9.0 | 0.00 | 0.00 | 0.00 | 19 | 1013.0 |
| 20260904213027 | 93 | 42 | 2.0 | 6.0 | 0.00 | 0.00 | 0.00 | 21 | 1013.3 |
| 20260904211655 | 93 | 122 | 1.0 | 4.0 | 0.00 | 0.00 | 0.00 | 20 | 1013.3 |
| 20260904211116 | 93 | 116 | 2.0 | 4.0 | 0.00 | 0.00 | 0.00 | 18 | 1013.5 |
| 20260904210615 | 93 | 46 | 3.0 | 4.0 | 0.00 | 0.00 | 0.00 | 21 | 1013.6 |
| 20260904210115 | 93 | 349 | 3.0 | 2.0 | 0.00 | 0.00 | 0.00 | 19 | 1013.6 |
| 20260904205133 | 93 | 128 | 3.0 | 10.0 | 0.00 | 0.00 | 0.00 | 19 | 1013.6 |
| 20260904204631 | 92 | 10 | 3.0 | 10.0 | 0.00 | 0.00 | 0.00 | 21 | 1013.8 |
| 20260904203630 | 92 | 75 | 1.0 | 6.0 | 0.00 | 0.00 | 0.00 | 21 | 1013.8 |
| 20260904203138 | 92 | 41 | 1.0 | 5.0 | 0.00 | 0.00 | 0.00 | 21 | 1014.1 |
| 20260904202631 | 92 | 34 | 2.0 | 5.0 | 0.00 | 0.00 | 0.00 | 21 | 1014.1 |
| 20260904202525 | 92 | 349 | 2.0 | 5.0 | 0.00 | 0.00 | 0.00 | 19 | 1014.2 |
| 20260904202006 | 92 | 112 | 1.0 | 7.0 | 0.00 | 0.00 | 0.00 | 20 | 1014.3 |
| 20260904201900 | 92 | 110 | 2.0 | 7.0 | 0.00 | 0.00 | 0.00 | 22 | 1014.4 |
| 20260904200732 | 91 | 31 | 2.0 | 7.0 | 0.00 | 0.00 | 0.00 | 22 | 1014.5 |
| 20260904200016 | 91 | 24 | 2.0 | 8.0 | 0.00 | 0.00 | 0.00 | 21 | 1014.7 |
| 20260904194639 | 91 | 92 | 1.0 | 11.0 | 0.00 | 0.00 | 0.00 | 21 | 1014.7 |
| 20260904193919 | 91 | 35 | 2.0 | 7.0 | 0.00 | 0.00 | 0.00 | 22 | 1014.7 |
| 20260904193405 | 91 | 61 | 2.0 | 7.0 | 0.00 | 0.00 | 0.00 | 20 | 1014.7 |
| 20260904192648 | 91 | 50 | 2.0 | 9.0 | 0.00 | 0.00 | 0.00 | 21 | 1014.9 |
| 20260904191607 | 91 | 131 | 1.0 | 9.0 | 0.00 | 0.00 | 0.00 | 21 | 1014.9 |
| 20260904185543 | 91 | 329 | 2.0 | 8.0 | 0.00 | 0.00 | 0.00 | 22 | 1015.2 |
| 20260904185037 | 91 | 109 | 2.0 | 8.0 | 0.00 | 0.00 | 0.00 | 22 | 1015.2 |
| 20260904184532 | 91 | 153 | 1.0 | 6.0 | 0.00 | 0.00 | 0.00 | 24 | 1015.1 |
| 20260904184026 | 90 | 69 | 2.0 | 6.0 | 0.00 | 0.00 | 0.00 | 22 | 1015.2 |
| 20260904183520 | 90 | 156 | 2.0 | 8.0 | 0.00 | 0.00 | 0.00 | 22 | 1015.4 |
| 20260904182508 | 90 | 71 | 2.0 | 9.0 | 0.00 | 0.00 | 0.00 | 22 | 1015.4 |
| 20260904182002 | 90 | 323 | 2.0 | 10.0 | 0.00 | 0.00 | 0.00 | 23 | 1015.4 |
| 20260904181456 | 90 | 118 | 2.0 | 10.0 | 0.00 | 0.00 | 0.00 | 21 | 1015.6 |
| 20260904180950 | 90 | 61 | 2.0 | 7.0 | 0.00 | 0.00 | 0.00 | 23 | 1015.6 |
| 20260904180443 | 90 | 82 | 2.0 | 9.0 | 0.00 | 0.00 | 0.00 | 22 | 1015.5 |
| 20260904175938 | 90 | 86 | 2.0 | 9.0 | 0.00 | 0.00 | 0.00 | 22 | 1015.7 |
| 20260904175431 | 90 | 161 | 1.0 | 7.0 | 0.00 | 0.00 | 0.00 | 25 | 1015.7 |
| 20260904174925 | 90 | 144 | 1.0 | 4.0 | 0.00 | 0.00 | 0.00 | 23 | 1015.7 |
| 20260904174419 | 90 | 111 | 2.0 | 8.0 | 0.00 | 0.00 | 0.00 | 24 | 1015.8 |
| 20260904173913 | 90 | 131 | 2.0 | 8.0 | 0.00 | 0.00 | 0.00 | 22 | 1015.7 |
| 20260904173407 | 90 | 113 | 2.0 | 8.0 | 0.00 | 0.00 | 0.00 | 22 | 1015.7 |
| 20260904172901 | 89 | 66 | 1.0 | 4.0 | 0.00 | 0.00 | 0.00 | 26 | 1015.7 |
| 20260904172355 | 89 | 118 | 1.0 | 4.0 | 0.00 | 0.00 | 0.00 | 24 | 1015.8 |
| 20260904171849 | 89 | 348 | 1.0 | 4.0 | 0.00 | 0.00 | 0.00 | 28 | 1015.8 |
| 20260904171344 | 89 | 323 | 2.0 | 5.0 | 0.00 | 0.00 | 0.00 | 24 | 1015.9 |
| 20260904170837 | 89 | 52 | 1.0 | 5.0 | 0.00 | 0.00 | 0.00 | 27 | 1015.9 |
| 20260904170331 | 88 | 38 | 1.0 | 5.0 | 0.00 | 0.00 | 0.00 | 26 | 1015.8 |
| 20260904165826 | 88 | 21 | 1.0 | 5.0 | 0.00 | 0.00 | 0.00 | 29 | 1015.9 |
| 20260904165319 | 87 | 103 | 1.0 | 5.0 | 0.00 | 0.00 | 0.00 | 28 | 1015.9 |
| 20260904164813 | 87 | 30 | 1.0 | 5.0 | 0.00 | 0.00 | 0.00 | 27 | 1016.1 |
| 20260904164308 | 86 | 56 | 0.0 | 3.0 | 0.00 | 0.00 | 0.00 | 28 | 1015.9 |
| 20260904163256 | 85 | 117 | 1.0 | 4.0 | 0.00 | 0.00 | 0.00 | 31 | 1016.1 |
| 20260904162751 | 85 | 68 | 0.0 | 2.0 | 0.00 | 0.00 | 0.00 | 30 | 1016.1 |
| 20260904162244 | 84 | 129 | 1.0 | 6.0 | 0.00 | 0.00 | 0.00 | 30 | 1015.8 |
| 20260904161737 | 84 | 182 | 1.0 | 6.0 | 0.00 | 0.00 | 0.00 | 29 | 1015.9 |
| 20260904161231 | 83 | 100 | 1.0 | 4.0 | 0.00 | 0.00 | 0.00 | 30 | 1016.1 |
| 20260904160726 | 83 | 106 | 1.0 | 6.0 | 0.00 | 0.00 | 0.00 | 30 | 1015.9 |
| 20260904160219 | 83 | 113 | 1.0 | 6.0 | 0.00 | 0.00 | 0.00 | 30 | 1016.1 |
| 20260904155208 | 81 | 117 | 1.0 | 4.0 | 0.00 | 0.00 | 0.00 | 33 | 1015.9 |
| 20260904154155 | 80 | 118 | 1.0 | 3.0 | 0.00 | 0.00 | 0.00 | 34 | 1015.9 |
| 20260904153649 | 80 | 118 | 2.0 | 4.0 | 0.00 | 0.00 | 0.00 | 35 | 1015.9 |
| 20260904153156 | 79 | 112 | 1.0 | 4.0 | 0.00 | 0.00 | 0.00 | 33 | 1015.8 |
| 20260904151625 | 77 | 121 | 1.0 | 3.0 | 0.00 | 0.00 | 0.00 | 38 | 1015.8 |
| 20260904151120 | 76 | 130 | 1.0 | 4.0 | 0.00 | 0.00 | 0.00 | 38 | 1015.7 |
| 20260904150614 | 75 | 137 | 1.0 | 4.0 | 0.00 | 0.00 | 0.00 | 40 | 1015.8 |
| 20260904150118 | 74 | 192 | 1.0 | 2.0 | 0.00 | 0.00 | 0.00 | 43 | 1015.8 |
| 20260904145601 | 73 | 192 | 1.0 | 3.0 | 0.00 | 0.00 | 0.00 | 44 | 1015.7 |
| 20260904145055 | 72 | 198 | 1.0 | 3.0 | 0.00 | 0.00 | 0.00 | 42 | 1015.8 |
| 20260904144550 | 71 | 198 | 1.0 | 3.0 | 0.00 | 0.00 | 0.00 | 44 | 1015.7 |
| 20260904144043 | 70 | 151 | 1.0 | 4.0 | 0.00 | 0.00 | 0.00 | 47 | 1015.7 |
| 20260904143537 | 69 | 112 | 1.0 | 4.0 | 0.00 | 0.00 | 0.00 | 45 | 1015.7 |
| 20260904143034 | 68 | 109 | 1.0 | 3.0 | 0.00 | 0.00 | 0.00 | 48 | 1015.8 |
| 20260904142020 | 65 | 113 | 0.0 | 3.0 | 0.00 | 0.00 | 0.00 | 52 | 1015.8 |
| 20260904141513 | 63 | 113 | 0.0 | 0.0 | 0.00 | 0.00 | 0.00 | 55 | 1015.8 |
| 20260904140008 | 60 | 113 | 0.0 | 0.0 | 0.00 | 0.00 | 0.00 | 60 | 1015.6 |
| 20260904135449 | 59 | 113 | 0.0 | 0.0 | 0.00 | 0.00 | 0.00 | 61 | 1015.5 |
| 20260904134437 | 57 | 113 | 0.0 | 0.0 | 0.00 | 0.00 | 0.00 | 65 | 1015.4 |
| 20260904133931 | 56 | 113 | 0.0 | 0.0 | 0.00 | 0.00 | 0.00 | 65 | 1015.4 |
| 20260904133426 | 56 | 113 | 0.0 | 0.0 | 0.00 | 0.00 | 0.00 | 68 | 1015.4 |
| 20260904132919 | 56 | 113 | 0.0 | 0.0 | 0.00 | 0.00 | 0.00 | 69 | 1015.2 |
| 20260904132414 | 56 | 113 | 0.0 | 0.0 | 0.00 | 0.00 | 0.00 | 68 | 1015.1 |
| 20260904131908 | 56 | 113 | 0.0 | 0.0 | 0.00 | 0.00 | 0.00 | 67 | 1015.0 |
| 20260904131401 | 56 | 113 | 0.0 | 0.0 | 0.00 | 0.00 | 0.00 | 66 | 1015.0 |
| 20260904130350 | 55 | 113 | 0.0 | 0.0 | 0.00 | 0.00 | 0.00 | 67 | 1015.0 |
| 20260904125843 | 55 | 325 | 0.0 | 0.0 | 0.00 | 0.00 | 0.00 | 67 | 1014.9 |
| 20260904125338 | 55 | 325 | 0.0 | 1.0 | 0.00 | 0.00 | 0.00 | 67 | 1014.9 |
| 20260904124831 | 55 | 325 | 0.0 | 1.0 | 0.00 | 0.00 | 0.00 | 66 | 1014.9 |
| 20260904123820 | 56 | 325 | 0.0 | 1.0 | 0.00 | 0.00 | 0.00 | 66 | 1014.8 |
| 20260904122306 | 56 | 325 | 0.0 | 0.0 | 0.00 | 0.00 | 0.00 | 66 | 1014.7 |
| 20260904121756 | 56 | 325 | 0.0 | 0.0 | 0.00 | 0.00 | 0.00 | 67 | 1014.4 |
| 20260904121249 | 56 | 325 | 0.0 | 0.0 | 0.00 | 0.00 | 0.00 | 66 | 1014.5 |
| 20260904120743 | 56 | 325 | 0.0 | 0.0 | 0.00 | 0.00 | 0.00 | 65 | 1014.5 |
| 20260904120237 | 57 | 325 | 0.0 | 0.0 | 0.00 | 0.00 | 0.00 | 65 | 1014.5 |
| 20260904115731 | 57 | 325 | 0.0 | 0.0 | 0.00 | 0.00 | 0.00 | 65 | 1014.5 |
| 20260904114720 | 57 | 325 | 0.0 | 0.0 | 0.00 | 0.00 | 0.00 | 66 | 1014.5 |
| 20260904114214 | 57 | 325 | 0.0 | 0.0 | 0.00 | 0.00 | 0.00 | 65 | 1014.4 |
| 20260904113707 | 57 | 325 | 0.0 | 0.0 | 0.00 | 0.00 | 0.00 | 65 | 1014.3 |
| 20260904113201 | 58 | 325 | 0.0 | 0.0 | 0.00 | 0.00 | 0.00 | 65 | 1014.4 |
| 20260904112657 | 58 | 325 | 0.0 | 0.0 | 0.00 | 0.00 | 0.00 | 65 | 1014.4 |
| 20260904112151 | 58 | 325 | 0.0 | 0.0 | 0.00 | 0.00 | 0.00 | 65 | 1014.3 |
| 20260904111645 | 58 | 325 | 0.0 | 0.0 | 0.00 | 0.00 | 0.00 | 65 | 1014.3 |
| 20260904110632 | 58 | 325 | 0.0 | 0.0 | 0.00 | 0.00 | 0.00 | 64 | 1014.2 |
| 20260904110126 | 58 | 325 | 0.0 | 0.0 | 0.00 | 0.00 | 0.00 | 64 | 1014.2 |
| 20260904105619 | 59 | 325 | 0.0 | 0.0 | 0.00 | 0.00 | 0.00 | 64 | 1014.3 |
| 20260904104607 | 59 | 325 | 0.0 | 0.0 | 0.00 | 0.00 | 0.00 | 63 | 1013.7 |
| 20260904104101 | 59 | 325 | 0.0 | 0.0 | 0.00 | 0.00 | 0.00 | 63 | 1013.7 |
| 20260904103556 | 59 | 325 | 0.0 | 0.0 | 0.00 | 0.00 | 0.00 | 61 | 1013.7 |
| 20260904103051 | 59 | 325 | 0.0 | 1.0 | 0.00 | 0.00 | 0.00 | 61 | 1013.7 |
| 20260904102543 | 60 | 325 | 0.0 | 1.0 | 0.00 | 0.00 | 0.00 | 61 | 1013.7 |
| 20260904102038 | 60 | 325 | 0.0 | 0.0 | 0.00 | 0.00 | 0.00 | 60 | 1013.6 |
| 20260904101544 | 60 | 325 | 0.0 | 0.0 | 0.00 | 0.00 | 0.00 | 60 | 1013.5 |
| 20260904101026 | 60 | 325 | 0.0 | 1.0 | 0.00 | 0.00 | 0.00 | 59 | 1013.7 |
| 20260904100520 | 60 | 325 | 0.0 | 1.0 | 0.00 | 0.00 | 0.00 | 61 | 1013.6 |
| 20260904100013 | 60 | 325 | 0.0 | 0.0 | 0.00 | 0.00 | 0.00 | 59 | 1013.6 |
| 20260904095521 | 60 | 325 | 0.0 | 0.0 | 0.00 | 0.00 | 0.00 | 59 | 1013.6 |
| 20260904095002 | 61 | 325 | 0.0 | 0.0 | 0.00 | 0.00 | 0.00 | 59 | 1013.5 |
| 20260904093443 | 61 | 325 | 0.0 | 1.0 | 0.00 | 0.00 | 0.00 | 55 | 1013.1 |
| 20260904092938 | 61 | 325 | 0.0 | 1.0 | 0.00 | 0.00 | 0.00 | 53 | 1013.1 |
| 20260904092431 | 62 | 325 | 0.0 | 0.0 | 0.00 | 0.00 | 0.00 | 52 | 1013.0 |
| 20260904091925 | 62 | 325 | 0.0 | 0.0 | 0.00 | 0.00 | 0.00 | 53 | 1013.1 |
| 20260904091419 | 62 | 325 | 0.0 | 0.0 | 0.00 | 0.00 | 0.00 | 52 | 1013.0 |
| 20260904090408 | 62 | 325 | 0.0 | 1.0 | 0.00 | 0.00 | 0.00 | 52 | 1013.0 |
| 20260904085902 | 62 | 325 | 0.0 | 1.0 | 0.00 | 0.00 | 0.00 | 51 | 1013.0 |
| 20260904085355 | 63 | 325 | 0.0 | 1.0 | 0.00 | 0.00 | 0.00 | 50 | 1012.9 |
| 20260904084849 | 63 | 325 | 0.0 | 1.0 | 0.00 | 0.00 | 0.00 | 49 | 1013.0 |
| 20260904083851 | 63 | 325 | 0.0 | 1.0 | 0.00 | 0.00 | 0.00 | 49 | 1012.8 |
| 20260904083332 | 63 | 325 | 0.0 | 0.0 | 0.00 | 0.00 | 0.00 | 48 | 1012.9 |
| 20260904082319 | 64 | 325 | 0.0 | 0.0 | 0.00 | 0.00 | 0.00 | 48 | 1012.9 |
| 20260904081813 | 64 | 325 | 0.0 | 0.0 | 0.00 | 0.00 | 0.00 | 48 | 1012.7 |
| 20260904080802 | 65 | 325 | 0.0 | 1.0 | 0.00 | 0.00 | 0.00 | 46 | 1012.8 |
| 20260904075749 | 65 | 325 | 0.0 | 0.0 | 0.00 | 0.00 | 0.00 | 46 | 1012.8 |
| 20260904075244 | 65 | 325 | 0.0 | 0.0 | 0.00 | 0.00 | 0.00 | 46 | 1012.8 |
| 20260904074231 | 66 | 325 | 0.0 | 0.0 | 0.00 | 0.00 | 0.00 | 46 | 1012.8 |
| 20260904073221 | 66 | 325 | 0.0 | 0.0 | 0.00 | 0.00 | 0.00 | 46 | 1012.9 |
| 20260904072721 | 66 | 325 | 0.0 | 0.0 | 0.00 | 0.00 | 0.00 | 45 | 1012.8 |
| 20260904071720 | 67 | 325 | 0.0 | 1.0 | 0.00 | 0.00 | 0.00 | 45 | 1012.8 |
| 20260904070716 | 67 | 325 | 0.0 | 1.0 | 0.00 | 0.00 | 0.00 | 45 | 1012.8 |
| 20260904070216 | 67 | 325 | 0.0 | 1.0 | 0.00 | 0.00 | 0.00 | 45 | 1012.9 |
| 20260904065716 | 67 | 325 | 0.0 | 1.0 | 0.00 | 0.00 | 0.00 | 44 | 1012.9 |
| 20260904065214 | 67 | 325 | 0.0 | 2.0 | 0.00 | 0.00 | 0.00 | 44 | 1012.9 |
| 20260904064712 | 67 | 325 | 0.0 | 2.0 | 0.00 | 0.00 | 0.00 | 44 | 1012.9 |
| 20260904064211 | 67 | 325 | 1.0 | 2.0 | 0.00 | 0.00 | 0.00 | 44 | 1012.9 |
| 20260904063711 | 68 | 325 | 1.0 | 4.0 | 0.00 | 0.00 | 0.00 | 44 | 1013.0 |
| 20260904063210 | 68 | 325 | 1.0 | 4.0 | 0.00 | 0.00 | 0.00 | 44 | 1012.9 |
| 20260904062712 | 68 | 50 | 1.0 | 2.0 | 0.00 | 0.00 | 0.00 | 43 | 1013.1 |
| 20260904062210 | 68 | 49 | 1.0 | 4.0 | 0.00 | 0.00 | 0.00 | 44 | 1013.0 |
| 20260904061707 | 68 | 129 | 1.0 | 4.0 | 0.00 | 0.00 | 0.00 | 43 | 1013.1 |
| 20260904061206 | 68 | 170 | 1.0 | 4.0 | 0.00 | 0.00 | 0.00 | 43 | 1013.0 |
| 20260904060705 | 69 | 279 | 0.0 | 3.0 | 0.00 | 0.00 | 0.00 | 43 | 1013.3 |